This demonstration page uses our WeatherBlox Daily Observations layout. Learn more.

Left ArrowRight Arrow

Hourly Observations for June 16, 2018

Temp ( °F °C ) Dew Point ( °F °C ) Humidity (%) Winds ( mph kmh ) Pressure ( in mb ) Visibility ( mi km ) Precip ( " mm )
12:54 am 00:54 Clear 84 28.9 68 20 59 59 S 20 31 29.71 1006 10 16 0.00 0.00
1:54 am 01:54 Clear 81 27.2 67 19.4 62 62 S 18 30 29.72 1006 10 16 0.00 0.00
2:54 am 02:54 Clear 82 27.8 67 19.4 60 60 S 17 28 29.71 1006 10 16 0.00 0.00
3:54 am 03:54 Clear 81 27.2 66 18.9 61 61 S 16 26 29.70 1006 10 16 0.00 0.00
4:54 am 04:54 Partly Cloudy 80 26.7 66 18.9 62 62 S 14 22 29.71 1006 10 16 0.00 0.00
5:54 am 05:54 Mostly Cloudy 79 26.1 66 18.9 65 65 S 13 20 29.72 1006 10 16 0.00 0.00
6:54 am 06:54 Mostly Cloudy 78 25.6 66 18.9 67 67 S 14 22 29.72 1007 10 16 0.00 0.00
7:54 am 07:54 Sunny 81 27.2 67 19.4 62 62 S 15 24 29.73 1007 10 16 0.00 0.00
8:54 am 08:54 Sunny 85 29.4 67 19.4 55 55 SSW 18 30 29.73 1007 10 16 0.00 0.00
9:54 am 09:54 Sunny 88 31.1 67 19.4 50 50 SSW 16 26 29.73 1007 10 16 0.00 0.00
10:54 am 10:54 Sunny 90 32.2 68 20 48 48 SSW 18 30 29.72 1006 10 16 0.00 0.00
11:54 am 11:54 Partly Cloudy 93 33.9 67 19.4 42 42 S 21 33 29.72 1006 10 16 0.00 0.00
12:54 pm 12:54 Sunny 96 35.6 67 19.4 39 39 S 20 31 29.71 1006 10 16 0.00 0.00
1:54 pm 13:54 Sunny 97 36.1 66 18.9 36 36 S 20 31 29.69 1006 10 16 0.00 0.00
2:54 pm 14:54 Mostly Sunny 97 36.1 65 18.3 35 35 S 21 33 29.69 1005 10 16 0.00 0.00
3:54 pm 15:54 Sunny 99 37.2 64 17.8 32 32 S 22 35 29.69 1005 10 16 0.00 0.00
4:54 pm 16:54 Sunny 97 36.1 64 17.8 34 34 S 22 35 29.68 1005 10 16 0.00 0.00
5:54 pm 17:54 Sunny 97 36.1 65 18.3 35 35 S 21 33 29.68 1005 10 16 0.00 0.00
6:54 pm 18:54 Sunny 92 33.3 65 18.3 41 41 S 20 31 29.69 1005 10 16 0.00 0.00
7:54 pm 19:54 Sunny 90 32.2 67 19.4 47 47 S 16 26 29.69 1006 10 16 0.00 0.00
8:54 pm 20:54 Sunny 88 31.1 67 19.4 50 50 S 20 31 29.70 1006 10 16 0.00 0.00
9:54 pm 21:54 Clear 86 30 68 20 55 55 S 14 22 29.72 1006 10 16 0.00 0.00
10:54 pm 22:54 Clear 84 28.9 68 20 59 59 S 15 24 29.75 1007 10 16 0.00 0.00
11:54 pm 23:54 Clear 83 28.3 68 20 61 61 S 16 26 29.76 1008 10 16 0.00 0.00

Powered by AerisWeather